1485061200.89,44885,8.44,74222.0,-6.85,-40.35,-40.41,0,*5D
1485061202.13,44886,8.38,74220.0,-6.85,-39.97,-40.15,0,*59
1485061203.36,44887,8.44,74222.0,-6.81,-40.03,-40.21,0,*58
1485061204.59,44888,8.44,74220.0,-6.85,-40.03,-40.09,0,*59
1485061205.83,44889,8.44,74226.3,-6.81,-39.97,-40.15,0,*52
1485061207.04,44890,8.44,74222.5,-6.85,-40.15,-40.35,0,*58
1485061208.28,44891,8.38,74218.8,-6.85,-40.15,-40.21,0,*5C
1485061209.52,44892,8.44,74222.0,-6.85,-40.15,-40.21,0,*5F
1485061210.76,44893,8.44,74218.8,-6.81,-40.15,-40.29,0,*52
1485061211.97,44894,8.38,74218.5,-6.85,-40.03,-40.35,0,*5B
1485061213.22,44895,8.38,74220.5,-6.85,-40.21,-40.41,0,*59
1485061214.48,44896,8.38,74216.8,-6.85,-40.21,-40.41,0,*5A
1485061215.68,44897,8.44,74220.5,-6.85,-40.03,-40.15,0,*5A
1485061216.92,44898,8.44,74220.5,-6.81,-40.09,-40.15,0,*5B
1485061218.13,44899,8.38,74216.8,-6.85,-40.03,-40.15,0,*54
1485061219.4,44900,8.44,74222.8,-6.85,-40.41,-40.59,0,*5B
1485061220.63,44901,8.44,74222.5,-6.81,-40.29,-40.53,0,*5A
1485061221.87,44902,8.38,74216.3,-6.81,-40.15,-40.29,0,*5B
1485061223.08,44903,8.44,74222.3,-6.85,-40.15,-40.35,0,*53
1485061224.32,44904,8.38,74218.3,-6.81,-40.35,-40.59,0,*58
1485061225.56,44905,8.44,74220.8,-6.81,-40.15,-40.29,0,*5C
1485061226.8,44906,8.44,74220.3,-6.81,-40.09,-40.15,0,*5D
1485061228.0,44907,8.38,74216.8,-6.85,-40.53,-40.73,0,*57
1485061229.21,44908,8.44,74220.3,-6.85,-40.35,-40.53,0,*5A
1485061230.43,44909,8.44,74222.5,-6.85,-40.21,-40.35,0,*5E
1485061231.65,44910,8.44,74220.8,-6.85,-40.15,-40.35,0,*51
1485061232.88,44911,8.44,74222.8,-6.85,-40.35,-40.59,0,*58
1485061234.09,44912,8.44,74220.8,-6.85,-40.35,-40.35,0,*51
1485061235.32,44913,8.44,74220.8,-6.85,-40.35,-40.41,0,*53
1485061236.56,44914,8.38,74218.8,-6.85,-40.41,-40.73,0,*56
1485061237.82,44915,8.44,74222.8,-6.87,-40.35,-40.41,0,*57
1485061239.06,44916,8.44,74220.0,-6.87,-40.15,-40.35,0,*55
1485061240.29,44917,8.44,74220.0,-6.85,-40.21,-40.53,0,*51
1485061241.5,44918,8.38,74218.5,-6.85,-40.35,-40.53,0,*5B
1485061242.76,44919,8.44,74220.3,-6.85,-40.41,-40.59,0,*53
1485061243.97,44920,8.38,74220.3,-6.85,-40.15,-40.35,0,*52
1485061245.18,44921,8.44,74220.8,-6.85,-40.35,-40.53,0,*51
1485061246.42,44922,8.38,74220.8,-6.85,-40.35,-40.41,0,*51
1485061247.67,44923,8.44,74222.0,-6.85,-40.21,-40.41,0,*55
1485061248.93,44924,8.44,74222.0,-6.85,-40.41,-40.59,0,*5D
1485061250.17,44925,8.44,74222.5,-6.85,-40.35,-40.59,0,*5F
1485061251.37,44926,8.44,74220.8,-6.85,-40.35,-40.35,0,*56
1485061252.6,44927,8.44,74220.0,-6.85,-40.21,-40.53,0,*52
1485061253.81,44928,8.44,74220.5,-6.85,-40.35,-40.53,0,*58
1485061255.06,44929,8.44,74222.5,-6.85,-40.21,-40.41,0,*5F
1485061256.33,44930,8.38,74220.5,-6.85,-40.41,-40.59,0,*58
1485061257.58,44931,8.44,74220.0,-6.85,-40.41,-40.79,0,*5B
1485061258.82,44932,8.44,74220.8,-6.85,-40.73,-40.85,0,*5A
1485061260.08,44933,8.38,74218.5,-6.85,-40.59,-40.85,0,*53
1485061261.34,44934,8.38,74216.8,-6.87,-40.35,-40.59,0,*5D
1485061262.6,44935,8.44,74226.3,-6.91,-40.35,-40.41,0,*52
1485061263.84,44936,8.44,74222.5,-6.91,-40.47,-40.65,0,*52
1485061265.09,44937,8.38,74220.3,-6.87,-40.53,-40.79,0,*5C
1485061266.29,44938,8.38,74218.5,-6.85,-40.35,-40.35,0,*59
1485061267.58,44939,8.38,74218.5,-6.87,-40.59,-40.79,0,*58
1485061268.81,44940,8.38,74218.8,-6.87,-40.53,-40.73,0,*56
1485061270.07,44941,8.44,74220.0,-6.91,-40.41,-40.47,0,*54
1485061271.33,44942,8.44,74220.3,-6.91,-40.29,-40.35,0,*5C
1485061272.56,44943,8.38,74216.5,-6.87,-40.03,-40.03,0,*57
1485061273.85,44944,8.38,74218.3,-6.91,-40.09,-40.29,0,*55
1485061275.14,44945,8.38,74220.3,-6.87,-40.41,-40.59,0,*58
1485061276.37,44946,8.44,74222.5,-6.87,-40.35,-40.35,0,*52
1485061277.63,44947,8.38,74222.0,-6.87,-40.21,-40.35,0,*56
1485061278.88,44948,8.44,74222.8,-6.91,-40.29,-40.47,0,*53
1485061280.12,44949,8.44,74224.5,-6.87,-40.35,-40.53,0,*5D
1485061281.36,44950,8.44,74220.0,-6.87,-40.35,-40.53,0,*55
1485061282.65,44951,8.44,74220.3,-6.87,-40.41,-40.59,0,*5D
1485061283.92,44952,8.38,74218.8,-6.87,-40.41,-40.53,0,*54
1485061285.21,44953,8.44,74220.0,-6.91,-40.29,-40.41,0,*5F
1485061286.5,44954,8.38,74222.0,-6.87,-40.41,-40.59,0,*58
1485061287.75,44955,8.38,74220.8,-6.87,-40.53,-40.79,0,*58
1485061289.01,44956,8.38,74218.3,-6.91,-40.47,-40.79,0,*59
1485061290.29,44957,8.44,74220.0,-6.91,-40.59,-40.79,0,*57
1485061291.56,44958,8.38,74220.0,-6.91,-40.47,-40.59,0,*55
1485061292.85,44959,8.44,74222.5,-6.87,-40.41,-40.59,0,*55
1485061294.11,44960,8.44,74222.0,-6.91,-40.65,-40.85,0,*5F
1485061295.39,44961,8.44,74220.3,-6.87,-40.59,-40.79,0,*55
1485061296.68,44962,8.44,74220.8,-6.91,-40.59,-40.79,0,*51
1485061297.94,44963,8.44,74222.0,-6.91,-40.65,-40.85,0,*5C
1485061299.2,44964,8.44,74220.8,-6.91,-40.65,-40.85,0,*5B
1485061300.46,44965,8.38,74218.5,-6.91,-40.65,-40.85,0,*5A
1485061301.69,44966,8.44,74222.3,-6.91,-40.47,-40.65,0,*57
1485061302.92,44967,8.44,74222.3,-6.93,-40.47,-40.65,0,*54
1485061304.16,44968,8.38,74222.0,-6.93,-40.73,-40.91,0,*57
1485061305.42,44969,8.38,74218.5,-6.93,-40.47,-40.85,0,*54
1485061306.65,44970,8.44,74220.0,-6.95,-40.65,-40.97,0,*59
1485061307.86,44971,8.44,74222.8,-6.95,-40.47,-40.65,0,*55
1485061309.09,44972,8.44,74220.0,-6.93,-40.47,-40.65,0,*50
1485061310.32,44973,8.44,74222.3,-6.93,-40.47,-40.65,0,*51
1485061311.57,44974,8.38,74220.0,-6.93,-40.29,-40.35,0,*5B
1485061312.8,44975,8.44,74222.0,-6.93,-40.35,-40.53,0,*57
1485061314.04,44976,8.44,74220.8,-6.93,-40.47,-40.65,0,*54
1485061315.27,44977,8.38,74220.5,-6.95,-40.47,-40.85,0,*5D
1485061316.5,44978,8.44,74226.5,-6.93,-40.53,-40.73,0,*58
1485061317.71,44979,8.38,74222.5,-6.95,-40.73,-40.91,0,*51
1485061318.91,44980,8.44,74220.0,-6.95,-40.53,-40.73,0,*59
1485061320.14,44981,8.44,74224.0,-6.93,-40.73,-40.91,0,*50
1485061321.35,44982,8.38,74222.8,-6.95,-40.73,-41.11,0,*5C
1485061322.57,44983,8.38,74220.0,-6.95,-40.91,-41.11,0,*51
1485061323.8,44984,8.38,74218.3,-6.93,-40.47,-40.65,0,*59
1485061325.0,44985,8.44,74222.0,-6.99,-40.53,-40.53,0,*52
1485061326.2,44986,8.38,74222.5,-6.95,-40.35,-40.47,0,*58
1485061327.43,44987,8.44,74222.3,-6.95,-40.53,-40.85,0,*57
1485061328.64,44988,8.38,74220.0,-6.95,-40.53,-40.91,0,*5D
1485061329.88,44989,8.38,74222.5,-6.95,-40.85,-40.91,0,*57
1485061331.08,44990,8.38,74222.0,-6.95,-40.47,-40.47,0,*5A
1485061332.29,44991,8.44,74222.8,-6.95,-40.15,-40.35,0,*59
1485061333.52,44992,8.44,74222.3,-6.95,-40.29,-40.47,0,*50
1485061334.76,44993,8.44,74224.0,-6.95,-40.73,-40.97,0,*53
1485061335.96,44994,8.38,74222.0,-6.95,-40.47,-40.65,0,*5E
1485061337.19,44995,8.44,74222.5,-6.95,-40.29,-40.53,0,*52
1485061338.44,44996,8.44,74224.3,-6.99,-40.59,-40.79,0,*52
1485061339.68,44997,8.44,74220.5,-6.95,-40.73,-40.85,0,*54
1485061340.88,44998,8.38,74220.8,-6.95,-40.47,-40.73,0,*55
1485061342.11,44999,8.38,74222.0,-6.99,-40.53,-40.79,0,*57
1485061343.36,45000,8.38,74218.3,-6.99,-40.59,-40.79,0,*55
1485061344.56,45001,8.38,74222.0,-6.95,-40.47,-40.65,0,*5A
1485061345.8,45002,8.44,74222.5,-6.99,-40.41,-40.53,0,*56
1485061347.02,45003,8.44,74220.8,-6.99,-40.53,-40.79,0,*5C
1485061348.25,45004,8.44,74222.5,-6.99,-40.53,-40.59,0,*59
1485061349.45,45005,8.38,74218.3,-6.99,-40.53,-40.73,0,*50
1485061350.68,45006,8.44,74222.3,-6.99,-40.73,-40.79,0,*5B
1485061351.91,45007,8.44,74224.8,-6.99,-40.73,-40.97,0,*5A
1485061353.13,45008,8.38,74220.3,-6.99,-40.53,-40.79,0,*57
1485061354.36,45009,8.38,74220.5,-6.99,-40.53,-40.59,0,*54
1485061355.62,45010,8.44,74220.0,-7.01,-40.35,-40.41,0,*55
1485061356.85,45011,8.44,74222.3,-6.99,-40.35,-40.59,0,*5D
1485061358.09,45012,8.38,74222.5,-6.99,-40.41,-40.53,0,*57
1485061359.33,45013,8.38,74220.0,-6.99,-40.41,-40.73,0,*54
1485061360.57,45014,8.38,74220.0,-7.01,-40.53,-40.79,0,*5A
1485061361.82,45015,8.38,74220.8,-7.01,-40.53,-40.59,0,*59
1485061363.1,45016,8.44,74222.8,-7.01,-40.59,-40.79,0,*52
1485061364.34,45017,8.44,74220.5,-6.99,-40.73,-40.97,0,*5B
1485061365.57,45018,8.38,74222.0,-7.01,-40.73,-41.03,0,*58
1485061366.83,45019,8.44,74222.8,-7.01,-40.79,-41.03,0,*53
1485061368.06,45020,8.44,74220.8,-6.99,-40.79,-41.03,0,*59
1485061369.32,45021,8.38,74222.0,-6.99,-40.41,-40.59,0,*5D
1485061370.61,45022,8.44,74226.8,-7.01,-40.41,-40.59,0,*5E
1485061371.9,45023,8.38,74222.5,-7.01,-40.41,-40.59,0,*5F
1485061373.15,45024,8.38,74220.0,-7.01,-40.53,-40.59,0,*5B
1485061374.38,45025,8.44,74222.5,-7.01,-40.73,-40.91,0,*5C
1485061375.61,45026,8.38,74222.5,-7.01,-40.53,-40.73,0,*51
1485061376.88,45027,8.38,74220.5,-7.01,-40.59,-40.79,0,*50
1485061378.13,45028,8.44,74222.0,-7.01,-40.53,-40.79,0,*55
1485061379.38,45029,8.44,74220.8,-7.01,-40.53,-40.59,0,*56
1485061380.61,45030,8.44,74220.8,-7.03,-40.59,-40.65,0,*59
1485061381.81,45031,8.44,74222.5,-7.03,-40.65,-40.65,0,*57
1485061383.07,45032,8.44,74222.5,-7.05,-40.59,-40.65,0,*5D
1485061384.32,45033,8.38,74218.5,-7.03,-40.79,-40.85,0,*56
1485061385.56,45034,8.44,74224.8,-7.03,-40.65,-40.97,0,*5F
1485061386.81,45035,8.44,74222.3,-7.03,-40.59,-40.79,0,*51
1485061388.02,45036,8.44,74222.8,-7.03,-40.65,-41.03,0,*51
1485061389.28,45037,8.44,74224.0,-7.03,-40.59,-40.85,0,*50
1485061390.53,45038,8.44,74224.8,-7.03,-40.59,-40.79,0,*5C
1485061391.75,45039,8.44,74222.3,-7.03,-40.65,-40.79,0,*52
1485061393.01,45040,8.44,74222.8,-7.05,-40.85,-41.11,0,*5B
1485061394.24,45041,8.44,74224.3,-7.03,-40.59,-40.65,0,*5F
1485061395.53,45042,8.38,74220.3,-7.05,-40.59,-40.85,0,*54
1485061396.76,45043,8.44,74222.5,-7.03,-40.65,-40.97,0,*5F
1485061398.01,45044,8.44,74220.8,-7.05,-40.65,-40.85,0,*5D
1485061399.24,45045,8.44,74224.3,-7.05,-40.47,-40.65,0,*52
1485061400.47,45046,8.44,74224.3,-7.03,-40.47,-40.79,0,*5A
1485061401.72,45047,8.38,74222.3,-7.05,-40.65,-40.85,0,*5E
1485061402.97,45048,8.44,74222.8,-7.05,-40.65,-40.79,0,*52
1485061404.2,45049,8.44,74224.8,-7.03,-40.47,-40.59,0,*57
1485061405.45,45050,8.44,74226.5,-7.05,-40.65,-40.85,0,*58
1485061406.68,45051,8.44,74226.0,-7.07,-40.65,-40.79,0,*58
1485061407.96,45052,8.44,74224.0,-7.05,-40.59,-40.85,0,*55
1485061409.19,45053,8.44,74222.5,-7.05,-40.47,-40.65,0,*55
1485061410.45,45054,8.44,74224.3,-7.05,-40.41,-40.47,0,*54
1485061411.67,45055,8.44,74220.5,-7.05,-40.47,-40.65,0,*53
1485061412.93,45056,8.44,74222.5,-7.05,-40.85,-41.03,0,*5F
1485061414.19,45057,8.44,74222.0,-7.05,-40.65,-40.85,0,*5F
1485061415.44,45058,8.38,74220.3,-7.05,-40.65,-40.97,0,*53
1485061416.65,45059,8.44,74222.3,-7.07,-40.47,-40.47,0,*5D
1485061417.85,45060,8.44,74224.5,-7.07,-40.53,-40.73,0,*55
1485061419.05,45061,8.44,74222.3,-7.07,-40.73,-41.11,0,*53
1485061420.34,45062,8.38,74222.5,-7.05,-40.79,-40.97,0,*57
1485061421.54,45063,8.44,74220.8,-7.07,-40.47,-40.65,0,*54
1485061422.74,45064,8.38,74222.3,-7.07,-40.53,-40.65,0,*56
1485061423.94,45065,8.44,74226.5,-7.07,-40.53,-40.73,0,*50
1485061425.15,45066,8.44,74226.8,-7.07,-40.73,-40.91,0,*5D
1485061426.37,45067,8.44,74220.8,-7.09,-40.65,-40.73,0,*59
1485061427.61,45068,8.44,74222.0,-7.07,-40.65,-40.85,0,*51
1485061428.8,45069,8.44,74220.8,-7.07,-40.65,-40.73,0,*59
1485061430.0,45070,8.44,74226.0,-7.07,-40.53,-40.65,0,*53
1485061431.21,45071,8.44,74222.8,-7.07,-40.47,-40.73,0,*50
1485061432.43,45072,8.44,74220.5,-7.09,-40.53,-40.73,0,*58
1485061433.63,45073,8.44,74226.3,-7.07,-40.53,-40.73,0,*57
1485061434.86,45074,8.44,74222.0,-7.09,-40.65,-40.91,0,*57
1485061436.1,45075,8.38,74220.5,-7.09,-40.65,-40.91,0,*56
1485061437.32,45076,8.44,74224.0,-7.09,-40.65,-40.65,0,*5E
1485061438.52,45077,8.44,74224.0,-7.07,-40.47,-40.47,0,*51
1485061439.72,45078,8.38,74218.5,-7.07,-40.53,-40.53,0,*5E
1485061440.95,45079,8.44,74224.5,-7.09,-40.65,-40.91,0,*5A
1485061442.18,45080,8.44,74226.5,-7.09,-40.53,-40.73,0,*55
1485061443.4,45081,8.44,74220.0,-7.09,-40.53,-40.73,0,*54
1485061444.65,45082,8.44,74224.5,-7.09,-40.53,-40.85,0,*5E
1485061445.91,45083,8.44,74220.3,-7.09,-40.29,-40.53,0,*59
1485061447.14,45084,8.44,74226.3,-7.09,-40.47,-40.65,0,*53
1485061448.35,45085,8.38,74220.3,-7.07,-40.73,-40.91,0,*50
1485061449.55,45086,8.44,74222.3,-7.07,-40.65,-40.91,0,*54
1485061450.81,45087,8.44,74224.0,-7.09,-40.65,-40.85,0,*5E
1485061452.01,45088,8.44,74224.3,-7.07,-40.47,-40.73,0,*56
1485061453.24,45089,8.44,74224.5,-7.09,-40.53,-40.91,0,*50
1485061454.5,45090,8.44,74224.3,-7.09,-40.65,-40.85,0,*58
1485061455.73,45091,8.44,74224.5,-7.09,-40.73,-40.91,0,*5B
1485061456.94,45092,8.38,74222.8,-7.11,-40.73,-40.91,0,*51
1485061458.16,45093,8.44,74222.3,-7.09,-40.53,-40.65,0,*50
1485061459.42,45094,8.38,74220.8,-7.09,-40.53,-40.85,0,*59
1485061460.64,45095,8.44,74226.0,-7.09,-40.53,-40.73,0,*51
1485061461.86,45096,8.44,74224.0,-7.09,-40.53,-40.73,0,*52
1485061463.09,45097,8.38,74222.0,-7.13,-40.73,-40.91,0,*56
1485061464.3,45098,8.44,74222.8,-7.11,-40.73,-40.73,0,*57
1485061465.5,45099,8.38,74220.8,-7.11,-40.73,-40.91,0,*5A
1485061466.71,45100,8.38,74222.0,-7.11,-40.73,-40.91,0,*5B
1485061467.94,45101,8.38,74220.3,-7.11,-40.59,-40.91,0,*52
1485061469.2,45102,8.38,74222.8,-7.11,-40.59,-40.79,0,*57
1485061470.4,45103,8.44,74226.5,-7.11,-40.35,-40.53,0,*54
1485061471.63,45104,8.38,74222.5,-7.11,-40.53,-40.59,0,*59
1485061472.9,45105,8.44,74226.8,-7.13,-40.59,-40.79,0,*52
1485061474.15,45106,8.44,74226.3,-7.11,-40.59,-40.79,0,*53
1485061475.36,45107,8.38,74220.8,-7.11,-40.73,-40.91,0,*5C
1485061476.61,45108,8.44,74222.5,-7.11,-40.59,-40.79,0,*5D
1485061477.86,45109,8.44,74224.8,-7.13,-40.79,-40.91,0,*5A
1485061479.12,45110,8.38,74220.8,-7.13,-40.79,-40.91,0,*52
1485061480.32,45111,8.44,74220.5,-7.11,-40.73,-40.91,0,*5B
1485061481.55,45112,8.38,74222.3,-7.13,-40.73,-40.91,0,*5A
1485061482.78,45113,8.38,74220.3,-7.11,-40.73,-40.79,0,*5F
1485061484.06,45114,8.44,74222.3,-7.13,-40.79,-40.97,0,*50
1485061485.31,45115,8.44,74224.5,-7.13,-40.97,-41.17,0,*58
1485061486.54,45116,8.38,74220.0,-7.13,-40.73,-40.91,0,*5E
1485061487.77,45117,8.44,74226.5,-7.13,-40.73,-40.73,0,*53
1485061489.05,45118,8.38,74222.8,-7.13,-40.79,-40.97,0,*5C
1485061490.27,45119,8.38,74222.0,-7.13,-40.73,-40.73,0,*5D
1485061491.54,45120,8.44,74226.5,-7.13,-40.59,-40.79,0,*55
1485061492.8,45121,8.44,74224.8,-7.13,-40.41,-40.53,0,*55
1485061494.05,45122,8.44,74226.5,-7.13,-40.59,-40.73,0,*5D
1485061495.27,45123,8.38,74222.8,-7.13,-40.53,-40.73,0,*56
1485061496.55,45124,8.44,74224.3,-7.13,-40.59,-40.79,0,*51
1485061497.8,45125,8.38,74222.0,-7.13,-40.79,-41.17,0,*5B
1485061499.03,45126,8.38,74222.8,-7.13,-40.91,-41.11,0,*58
1485061500.31,45127,8.38,74222.0,-7.13,-40.79,-40.97,0,*50
1485061501.57,45128,8.44,74226.5,-7.15,-40.79,-40.97,0,*59
1485061502.82,45129,8.44,74224.8,-7.15,-40.59,-40.79,0,*5A
1485061504.02,45130,8.44,74224.8,-7.15,-40.65,-40.65,0,*50
1485061505.27,45131,8.44,74224.3,-7.15,-40.59,-40.79,0,*53
1485061506.51,45132,8.38,74220.0,-7.15,-40.65,-40.97,0,*5F
1485061507.73,45133,8.38,74222.8,-7.15,-40.65,-40.79,0,*5E
1485061508.96,45134,8.38,74222.3,-7.15,-40.65,-40.85,0,*5A
1485061510.19,45135,8.38,74222.5,-7.15,-40.59,-40.65,0,*5A
1485061511.45,45136,8.44,74226.3,-7.17,-40.47,-40.59,0,*5B
1485061512.68,45137,8.44,74226.3,-7.15,-40.65,-40.97,0,*5A
1485061513.94,45138,8.38,74222.8,-7.15,-40.59,-40.59,0,*58
1485061515.17,45139,8.38,74222.5,-7.15,-40.41,-40.47,0,*5F
1485061516.43,45140,8.38,74222.5,-7.15,-40.29,-40.59,0,*50
1485061517.66,45141,8.44,74224.3,-7.15,-40.65,-40.85,0,*58
1485061518.89,45142,8.38,74222.8,-7.15,-40.47,-40.85,0,*5B
1485061520.15,45143,8.38,74222.5,-7.15,-40.59,-40.85,0,*55
1485061521.38,45144,8.44,74222.0,-7.15,-40.65,-40.85,0,*5D
1485061522.64,45145,8.44,74222.3,-7.15,-40.59,-40.79,0,*50
1485061523.87,45146,8.38,74220.3,-7.15,-40.65,-40.85,0,*5F
1485061525.13,45147,8.44,74222.8,-7.17,-40.65,-40.97,0,*5F
1485061526.39,45148,8.44,74226.8,-7.17,-40.65,-40.97,0,*50
1485061527.65,45149,8.38,74222.5,-7.17,-40.47,-40.59,0,*53
1485061528.91,45150,8.44,74222.5,-7.17,-40.47,-40.59,0,*5B
1485061530.2,45151,8.38,74222.0,-7.17,-40.85,-40.97,0,*56
1485061531.45,45152,8.38,74222.8,-7.15,-40.59,-40.79,0,*56
1485061532.71,45153,8.38,74222.5,-7.17,-40.65,-40.85,0,*59
1485061533.97,45154,8.44,74222.3,-7.15,-40.85,-41.23,0,*5F
1485061535.21,45155,8.38,74222.8,-7.17,-41.03,-41.17,0,*54
1485061536.47,45156,8.38,74220.8,-7.17,-40.79,-41.03,0,*5E
1485061537.72,45157,8.38,74222.0,-7.17,-40.65,-40.85,0,*5D
1485061538.97,45158,8.38,74220.8,-7.17,-40.65,-40.79,0,*51
1485061540.22,45159,8.44,74226.0,-7.17,-40.65,-40.79,0,*50
1485061541.48,45160,8.44,74226.3,-7.17,-40.79,-41.03,0,*5B
1485061542.71,45161,8.44,74224.5,-7.17,-40.65,-40.65,0,*56
1485061543.96,45162,8.44,74224.3,-7.21,-40.65,-40.85,0,*5E
1485061545.21,45163,8.44,74224.3,-7.17,-40.65,-40.79,0,*59
1485061546.47,45164,8.38,74222.5,-7.21,-40.85,-40.91,0,*53
1485061547.73,45165,8.44,74224.8,-7.21,-40.29,-40.53,0,*5A
1485061548.95,45166,8.44,74224.8,-7.21,-40.47,-40.47,0,*54
1485061550.18,45167,8.38,74222.8,-7.17,-40.65,-40.65,0,*50
1485061551.44,45168,8.38,74220.0,-7.17,-40.47,-40.59,0,*50
1485061552.7,45169,8.38,74220.5,-7.17,-40.65,-40.97,0,*53
1485061553.93,45170,8.44,74228.3,-7.21,-40.65,-40.65,0,*53
1485061555.16,45171,8.44,74226.5,-7.21,-40.73,-40.91,0,*5E
1485061556.39,45172,8.44,74224.8,-7.21,-40.73,-40.91,0,*5D
1485061557.63,45173,8.38,74224.0,-7.21,-40.73,-40.91,0,*5C
1485061558.83,45174,8.38,74220.5,-7.23,-40.65,-40.91,0,*5E
1485061560.06,45175,8.38,74222.8,-7.21,-40.47,-40.65,0,*56
1485061561.26,45176,8.38,74222.0,-7.23,-40.53,-40.73,0,*55
1485061562.47,45177,8.38,74222.5,-7.23,-40.73,-41.03,0,*50
1485061563.7,45178,8.44,74224.8,-7.21,-40.65,-40.73,0,*5C
1485061564.92,45179,8.38,74222.8,-7.21,-40.65,-40.73,0,*5D
1485061566.12,45180,8.44,74226.8,-7.23,-40.65,-40.73,0,*59
1485061567.35,45181,8.38,74224.5,-7.21,-40.65,-40.73,0,*5A
1485061568.57,45182,8.38,74222.3,-7.21,-40.53,-40.73,0,*5C
1485061569.8,45183,8.44,74226.5,-7.21,-40.73,-40.91,0,*53
1485061571.01,45184,8.38,74220.3,-7.23,-40.65,-40.91,0,*51
1485061572.22,45185,8.38,74220.5,-7.23,-40.73,-40.91,0,*57
1485061573.43,45186,8.38,74224.5,-7.23,-40.73,-40.91,0,*54
1485061574.66,45187,8.38,74224.0,-7.21,-40.53,-40.73,0,*59
1485061575.91,45188,8.38,74224.5,-7.21,-40.29,-40.47,0,*5C
1485061577.11,45189,8.38,74222.5,-7.23,-40.35,-40.53,0,*57
1485061578.34,45190,8.38,74224.0,-7.21,-40.53,-40.73,0,*5F
1485061579.54,45191,8.38,74220.5,-7.23,-40.53,-40.73,0,*5C
1485061580.74,45192,8.38,74224.5,-7.23,-40.47,-40.65,0,*5D
1485061581.95,45193,8.38,74224.0,-7.23,-40.53,-40.73,0,*5E
1485061583.15,45194,8.38,74224.3,-7.23,-40.53,-40.65,0,*5E
1485061584.35,45195,8.38,74222.8,-7.23,-40.65,-40.73,0,*5D
1485061585.6,45196,8.38,74222.8,-7.21,-40.53,-40.85,0,*50
1485061586.81,45197,8.44,74224.0,-7.23,-40.65,-40.91,0,*53
1485061588.04,45198,8.44,74226.5,-7.23,-40.65,-40.85,0,*59
1485061589.26,45199,8.44,74226.8,-7.21,-40.53,-40.73,0,*56
1485061590.46,45200,8.38,74222.5,-7.23,-40.53,-40.73,0,*57
1485061591.66,45201,8.44,74226.0,-7.23,-40.65,-40.73,0,*53
1485061592.89,45202,8.38,74224.3,-7.23,-40.65,-40.85,0,*59
1485061594.16,45203,8.44,74224.3,-7.25,-40.41,-40.59,0,*59
1485061595.42,45204,8.44,74226.0,-7.25,-40.79,-40.97,0,*57
1485061596.63,45205,8.38,74222.8,-7.25,-40.91,-41.17,0,*59
1485061597.87,45206,8.38,74222.3,-7.21,-40.73,-40.91,0,*5D
1485061599.1,45207,8.38,74222.8,-7.25,-40.79,-41.11,0,*5B
1485061600.36,45208,8.38,74224.5,-7.27,-40.79,-41.11,0,*56
1485061601.64,45209,8.38,74224.8,-7.27,-40.79,-40.97,0,*58
1485061602.87,45210,8.38,74224.5,-7.25,-40.59,-40.73,0,*5A
1485061604.13,45211,8.38,74224.5,-7.27,-40.53,-40.59,0,*5B
1485061605.37,45212,8.38,74222.3,-7.25,-40.41,-40.53,0,*53
1485061606.6,45213,8.44,74226.8,-7.25,-40.53,-40.59,0,*5B
1485061607.87,45214,8.44,74224.0,-7.27,-40.79,-40.79,0,*54
1485061609.08,45215,8.44,74226.5,-7.25,-40.73,-40.91,0,*5B
1485061610.34,45216,8.44,74226.3,-7.27,-40.59,-40.73,0,*5E
1485061611.58,45217,8.44,74228.5,-7.27,-40.73,-40.91,0,*5B
1485061612.81,45218,8.44,74224.5,-7.25,-40.53,-40.59,0,*50
1485061614.02,45219,8.38,74220.3,-7.25,-40.73,-40.91,0,*57
1485061615.23,45220,8.38,74222.8,-7.25,-40.73,-40.91,0,*5D
1485061616.52,45221,8.44,74224.3,-7.27,-40.79,-40.97,0,*52
1485061617.79,45222,8.44,74226.0,-7.27,-40.91,-40.97,0,*57
1485061619.06,45223,8.38,74224.8,-7.27,-40.91,-40.97,0,*56
1485061620.29,45224,8.38,74222.3,-7.27,-40.73,-40.91,0,*5B
1485061621.54,45225,8.38,74222.3,-7.27,-40.53,-40.79,0,*5E
1485061622.8,45226,8.38,74220.8,-7.27,-40.79,-40.91,0,*53
1485061624.04,45227,8.38,74222.0,-7.25,-40.41,-40.53,0,*55
1485061625.3,45228,8.38,74224.3,-7.27,-40.59,-40.91,0,*5F
1485061626.56,45229,8.38,74224.0,-7.27,-40.73,-40.97,0,*50
1485061627.84,45230,8.44,74224.8,-7.27,-40.59,-40.79,0,*50
1485061629.09,45231,8.38,74220.3,-7.27,-40.73,-40.79,0,*59
1485061630.33,45232,8.38,74220.8,-7.27,-40.73,-40.91,0,*5C
1485061631.56,45233,8.44,74224.5,-7.27,-40.53,-40.53,0,*51
1485061632.82,45234,8.44,74226.3,-7.27,-40.41,-40.53,0,*55
1485061634.05,45235,8.38,74222.3,-7.25,-40.59,-40.73,0,*5D
1485061635.29,45236,8.38,74222.8,-7.27,-40.73,-40.91,0,*58
1485061636.55,45237,8.44,74224.8,-7.27,-40.59,-40.73,0,*5D
1485061637.78,45238,8.44,74224.8,-7.27,-40.35,-40.73,0,*58
1485061639.04,45239,8.44,74226.0,-7.27,-40.41,-40.53,0,*58
1485061640.29,45240,8.44,74226.8,-7.29,-40.79,-40.85,0,*58
1485061641.55,45241,8.44,74226.0,-7.29,-40.59,-40.85,0,*5B
1485061642.78,45242,8.44,74224.0,-7.29,-40.59,-40.65,0,*56
1485061644.03,45243,8.38,74220.3,-7.29,-40.41,-40.59,0,*51
1485061645.26,45244,8.38,74220.3,-7.29,-40.41,-40.65,0,*59
1485061646.53,45245,8.38,74224.0,-7.27,-40.41,-40.53,0,*53
1485061647.79,45246,8.38,74222.8,-7.29,-40.41,-40.59,0,*54
1485061649.04,45247,8.38,74226.5,-7.29,-40.59,-40.59,0,*5C
1485061650.27,45248,8.38,74224.3,-7.29,-40.41,-40.47,0,*55
1485061651.53,45249,8.38,74220.0,-7.27,-40.35,-40.41,0,*5F
1485061652.81,45250,8.44,74226.5,-7.27,-40.59,-40.79,0,*56
1485061654.1,45251,8.44,74226.0,-7.27,-40.79,-40.97,0,*55
1485061655.33,45252,8.44,74224.8,-7.29,-40.85,-41.03,0,*57
1485061656.58,45253,8.44,74228.3,-7.29,-40.79,-40.85,0,*5A
1485061657.81,45254,8.44,74228.5,-7.29,-40.47,-40.59,0,*51
1485061659.03,45255,8.44,74224.5,-7.29,-40.65,-40.79,0,*52
1485061660.29,45256,8.38,74222.8,-7.29,-40.41,-40.59,0,*55
1485061661.52,45257,8.44,74226.3,-7.27,-40.53,-40.91,0,*5D
1485061662.75,45258,8.38,74222.3,-7.27,-40.53,-40.73,0,*5E
1485061663.98,45259,8.44,74224.8,-7.27,-40.53,-40.53,0,*5D
1485061665.21,45260,8.38,74220.5,-7.29,-40.85,-41.03,0,*56
1485061666.44,45261,8.38,74224.3,-7.29,-41.03,-41.23,0,*5A
1485061667.71,45262,8.38,74226.3,-7.31,-41.03,-41.23,0,*50
1485061668.97,45263,8.38,74226.0,-7.29,-40.41,-40.59,0,*53
1485061670.22,45264,8.44,74224.0,-7.29,-40.59,-40.79,0,*5F
1485061671.48,45265,8.38,74224.5,-7.31,-40.91,-41.23,0,*5D
1485061672.74,45266,8.38,74220.5,-7.29,-40.79,-40.97,0,*5F
1485061673.96,45267,8.38,74224.0,-7.29,-40.65,-40.85,0,*50
1485061675.2,45268,8.38,74222.5,-7.31,-40.91,-41.11,0,*51
1485061676.43,45269,8.44,74226.8,-7.31,-40.65,-40.91,0,*52
1485061677.67,45270,8.44,74224.0,-7.31,-41.03,-41.41,0,*57
1485061678.88,45271,8.38,74224.5,-7.33,-41.11,-41.41,0,*57
1485061680.1,45272,8.44,74226.0,-7.33,-41.03,-41.03,0,*51
1485061681.31,45273,8.44,74228.5,-7.33,-40.47,-40.65,0,*50
1485061682.54,45274,8.38,74226.5,-7.33,-40.29,-40.47,0,*5F
1485061683.75,45275,8.44,74224.0,-7.33,-40.91,-41.11,0,*5F
1485061684.99,45276,8.38,74222.5,-7.33,-40.85,-41.03,0,*5A
1485061686.19,45277,8.38,74222.3,-7.33,-40.53,-40.73,0,*56
1485061687.4,45278,8.44,74226.5,-7.33,-40.53,-40.65,0,*5E
1485061688.63,45279,8.38,74224.3,-7.31,-40.73,-41.03,0,*5E
1485061689.86,45280,8.38,74222.8,-7.31,-40.53,-40.73,0,*5C
1485061691.08,45281,8.38,74222.3,-7.31,-40.53,-40.65,0,*5A
1485061692.34,45282,8.38,74224.5,-7.31,-40.85,-41.03,0,*53
1485061693.59,45283,8.38,74222.3,-7.35,-40.91,-41.11,0,*50
1485061694.8,45284,8.38,74224.0,-7.33,-40.73,-40.91,0,*54
1485061696.03,45285,8.38,74222.0,-7.31,-40.47,-40.53,0,*5E
1485061697.26,45286,8.44,74224.8,-7.31,-40.35,-40.65,0,*5D
1485061698.5,45287,8.38,74224.8,-7.31,-40.91,-41.11,0,*50
1485061699.76,45288,8.44,74224.0,-7.35,-40.97,-41.29,0,*56
1485061700.97,45289,8.38,74220.3,-7.33,-40.65,-40.73,0,*52
1485061702.2,45290,8.38,74224.8,-7.33,-40.73,-40.97,0,*57
1485061703.42,45291,8.38,74224.8,-7.33,-40.73,-40.91,0,*50